Wind_Speed
29 30 30 30 30 30 29 27 25 24 23 23 22 21 21 20 20 20 19 19 19 19 18 18 18 18 18 17 17 16 15 15 14 13 13 13 12 12 13 13 13 13 14 14
30 30 30 30 30 30 29 28 26 25 24 23 22 22 22 22 21 21 20 20 20 20 19 19 19 19 18 18 18 17 17 16 15 15 14 14 14 14 14 14 14 15 15 16
28 29 30 30 30 29 29 28 27 26 25 24 23 23 23 23 23 22 21 20 20 20 19 18 18 18 18 17 17 17 17 17 16 16 15 15 15 15 15 16 16 16 17 17
27 29 29 30 29 29 29 28 27 26 25 25 24 24 23 23 24 24 22 22 21 21 19 18 18 18 17 17 17 17 17 16 16 16 15 15 16 16 17 17 17 17 18 18
28 28 29 30 29 28 29 29 28 27 26 25 25 25 24 24 25 25 24 23 22 21 20 19 18 18 18 18 17 18 17 17 16 17 17 16 16 17 17 17 17 17 18 18
29 28 28 29 29 28 29 29 28 27 27 26 26 25 24 25 26 25 25 25 24 23 22 21 19 19 18 18 18 18 18 17 17 18 17 17 17 17 17 17 18 18 18 18
30 29 29 29 29 28 29 29 28 28 28 27 27 26 26 26 26 26 26 25 25 24 23 22 21 20 20 19 19 19 19 18 18 18 18 18 17 18 18 18 18 19 19 18
31 31 31 30 29 30 29 29 28 28 28 28 27 27 27 27 26 26 25 25 25 24 24 23 22 21 20 20 20 20 19 18 17 17 17 17 17 18 18 19 18 19 19 19
31 31 31 30 30 30 30 30 29 29 28 28 28 28 27 26 25 25 25 25 25 24 24 23 22 21 21 20 20 19 19 19 18 17 17 17 17 18 18 18 18 18 19 20
30 31 30 29 30 31 30 30 30 29 29 30 29 28 28 27 26 26 25 24 24 24 23 22 22 22 21 21 20 20 20 19 19 18 18 18 18 18 18 18 18 18 18 19
30 30 29 30 30 30 30 29 29 29 29 29 29 28 28 28 26 25 24 23 23 23 22 22 22 22 21 21 21 21 21 20 19 19 19 19 19 19 20 20 20 19 19 19
29 29 30 30 30 30 30 30 29 29 29 29 29 28 28 27 27 26 25 25 24 24 23 22 21 21 21 22 21 21 22 21 21 21 20 20 20 20 20 21 21 20 19 20
28 28 29 28 29 29 29 29 29 29 29 29 28 28 28 28 28 27 26 26 25 24 24 23 22 21 22 22 21 21 21 21 22 21 21 21 21 22 22 21 21 21 21 21
28 28 28 28 28 28 28 28 28 29 29 29 29 29 29 29 28 28 27 26 25 25 24 24 23 23 23 22 22 21 21 22 22 22 23 23 23 23 23 23 22 22 21 22
27 28 28 28 27 26 27 27 28 28 29 29 29 30 29 29 28 27 27 26 25 25 24 24 24 24 23 23 23 22 22 22 22 22 23 23 23 23 23 23 22 22 22 23
27 27 27 27 27 27 26 27 27 28 28 29 29 29 29 29 28 28 27 26 25 25 25 24 24 24 24 23 23 23 23 23 23 23 23 24 24 24 23 23 23 23 23 23
26 26 26 26 26 27 27 27 28 28 28 28 29 29 29 29 29 29 28 27 25 25 25 25 24 24 24 23 23 23 24 24 24 24 24 23 23 24 24 24 24 24 24 24
25 25 26 26 26 26 27 27 27 28 27 28 29 29 29 29 29 29 28 27 27 25 25 24 24 24 23 23 23 24 24 24 24 24 23 23 24 24 24 24 24 24 23 24
24 25 25 25 25 25 26 26 26 27 27 28 28 28 28 28 28 28 27 26 25 25 24 24 23 23 23 23 22 22 22 22 22 22 22 23 23 24 23 24 24 24 24 24
23 24 24 24 24 24 25 25 25 26 26 27 27 28 28 29 28 27 26 25 25 24 24 23 23 22 22 22 22 21 22 22 22 22 22 23 23 23 24 25 24 24 25 25
22 23 23 23 23 24 23 24 24 25 26 26 26 26 27 27 26 26 25 24 24 24 23 23 23 22 22 21 21 21 21 21 21 21 21 22 22 23 23 23 23 24 25 26
21 22 23 23 22 23 23 23 23 23 23 24 25 26 26 26 25 25 23 22 22 22 22 22 21 21 20 20 21 21 20 20 20 20 21 21 21 21 22 22 23 24 25 26
20 20 21 21 21 20 21 22 23 23 23 23 23 24 24 24 23 23 22 22 21 20 20 19 18 18 19 19 19 20 20 20 20 20 20 20 21 21 22 22 23 25 25 26
19 19 19 20 21 21 21 21 22 22 22 21 22 22 22 23 22 22 21 20 19 19 18 18 18 19 19 19 19 19 19 19 20 20 20 20 20 21 22 23 24 24 25 25
19 20 20 20 20 20 20 19 20 21 21 21 21 21 21 22 21 21 20 19 18 17 17 17 17 17 18 18 18 18 18 19 19 20 20 20 21 21 22 22 23 24 24 24
18 19 19 19 19 19 19 19 20 20 21 21 21 21 21 21 20 20 19 18 18 18 17 17 17 18 18 18 18 18 18 19 19 20 20 20 21 21 21 22 23 23 24 24
17 18 18 18 18 19 19 19 19 19 19 20 20 20 20 20 20 19 18 18 18 17 17 17 18 18 19 19 19 18 18 18 19 19 20 20 21 22 22 23 24 24 25 26
Wind_Direction
222 226 229 228 228 228 229 230 231 233 234 235 233 233 234 234 233 235 238 241 243 244 248 251 253 254 257 259 262 266 269 272 274 276 279 279 281 281 283 283 284 283 282 281
224 226 228 229 228 229 230 230 231 232 233 233 232 232 233 232 234 236 238 240 240 241 247 251 253 255 256 257 260 263 267 270 270 273 276 277 278 279 281 281 283 284 283 281
226 227 228 228 228 229 230 230 231 232 232 231 230 231 232 232 232 234 235 236 236 239 245 250 251 251 252 255 259 264 268 271 273 275 276 275 275 276 278 281 281 282 282 281
225 227 228 228 227 228 230 231 231 231 230 230 229 230 231 230 231 231 232 231 232 235 240 246 250 250 250 253 257 261 266 270 272 273 276 279 277 276 279 281 282 282 281 280
225 229 231 230 226 227 230 231 231 231 230 230 230 230 231 230 231 230 230 231 234 236 239 245 249 250 251 253 257 262 263 267 270 272 274 275 276 276 278 280 282 283 281 279
223 227 232 230 227 226 229 231 230 231 230 229 229 229 229 230 231 231 231 232 235 237 238 242 246 249 251 253 257 263 265 265 266 270 272 273 274 276 278 279 280 281 280 279
225 227 231 229 226 225 228 229 229 230 231 230 229 228 228 230 231 232 234 233 235 236 238 242 245 248 250 253 257 263 265 263 265 269 271 273 275 276 278 279 280 280 280 278
224 226 230 229 226 226 227 229 229 230 231 230 229 228 229 231 232 234 233 232 234 236 239 242 244 246 249 254 258 260 261 262 264 268 270 273 275 277 280 278 279 280 279 278
224 226 229 228 227 228 228 228 228 229 229 228 226 226 227 229 230 232 230 233 235 237 240 241 243 246 249 253 256 257 259 260 262 267 271 273 276 279 282 282 281 283 280 278
226 227 228 227 228 227 227 227 227 228 228 227 227 227 227 228 230 231 229 231 234 237 239 240 243 246 248 251 254 257 259 260 261 265 270 273 276 279 282 284 283 282 281 280
226 226 227 226 226 226 226 226 228 228 228 228 226 226 226 227 229 228 228 230 232 235 239 241 243 244 246 250 254 256 259 261 261 265 269 273 276 279 281 281 282 282 281 281
224 224 225 223 224 225 226 226 226 226 225 224 223 222 223 226 227 226 225 229 232 236 239 241 243 244 247 253 257 258 260 260 262 264 268 271 274 277 279 281 282 281 280 280
221 222 223 223 224 225 226 226 225 224 223 223 222 221 222 224 225 226 226 229 233 235 238 241 243 246 249 253 257 260 261 262 265 266 268 271 273 276 279 281 282 280 278 277
220 221 221 222 223 223 224 224 223 222 221 222 221 221 221 222 224 225 227 230 233 235 237 240 244 246 248 251 254 257 260 263 264 265 268 271 273 276 278 279 280 279 278 278
221 221 221 221 221 221 221 221 221 221 220 220 220 220 221 223 224 227 229 232 235 237 239 241 244 247 249 252 255 258 261 263 264 266 269 270 273 276 278 279 279 278 277 277
221 220 220 221 220 220 220 221 221 220 219 220 221 221 222 224 225 228 230 232 235 238 240 244 245 247 251 255 258 260 262 264 266 267 269 271 272 275 277 277 277 277 276 277
218 219 220 221 221 221 221 221 221 221 219 220 220 222 224 225 226 228 230 231 235 238 241 244 246 249 252 255 259 260 262 265 266 268 269 270 272 274 276 276 276 277 277 279
218 219 219 221 222 222 222 222 221 219 219 220 221 222 224 225 226 228 230 233 235 238 241 243 245 248 253 256 259 261 264 264 265 267 268 270 272 273 276 276 276 278 281 282
217 217 219 220 221 221 220 220 221 220 219 219 220 220 222 224 226 228 230 232 235 237 239 242 245 249 253 256 257 259 263 265 265 266 268 270 272 274 274 275 276 277 281 283
215 215 216 218 220 221 220 220 220 219 218 218 220 221 222 224 227 229 231 233 235 238 240 243 245 248 251 254 256 259 263 265 265 267 268 269 271 273 274 276 278 279 281 282
213 212 214 217 219 220 219 220 220 219 219 220 221 223 225 227 228 230 232 233 234 237 238 240 245 248 251 254 258 262 267 268 268 270 270 271 272 274 276 277 278 281 283 284
211 212 215 217 217 216 216 217 217 218 219 219 220 223 226 228 229 230 230 230 231 233 237 240 243 247 251 255 260 263 265 266 268 270 273 274 275 277 278 280 282 285 286 287
210 211 211 210 208 208 211 213 214 216 217 218 220 221 223 224 225 225 225 227 229 232 235 238 242 247 252 257 259 261 264 266 268 270 273 275 277 279 281 283 285 287 288 290
207 208 208 207 208 208 210 213 213 215 215 215 215 216 218 220 221 219 220 222 226 230 235 241 246 249 254 259 261 261 262 265 269 271 273 276 279 281 283 285 286 289 289 290
205 206 206 208 209 209 210 211 212 212 211 213 213 214 216 216 216 216 216 219 226 232 237 242 247 251 254 259 262 263 265 269 270 272 274 277 280 282 285 287 289 290 291 293
199 199 201 204 207 208 210 211 210 209 210 211 212 213 213 213 213 214 218 225 231 235 240 245 251 256 258 261 265 267 269 271 273 275 278 279 281 283 286 288 291 292 293 295
195 197 198 200 202 205 207 207 206 205 205 207 209 210 212 211 214 217 223 230 234 238 244 250 255 258 261 263 266 267 269 271 275 278 280 283 284 286 288 291 293 294 295 297
Height
5804 5807 5811 5816 5820 5824 5829 5834 5839 5843 5846 5849 5851 5854 5856 5858 5861 5863 5865 5866 5868 5869 5871 5872 5873 5874 5875 5876 5876 5876 5876 5876 5875 5875 5875 5875 5875 5875 5874 5874 5873 5873 5872 5871
5798 5801 5805 5809 5814 5819 5823 5828 5833 5837 5840 5843 5846 5848 5851 5853 5856 5858 5860 5862 5863 5865 5866 5868 5869 5869 5871 5871 5872 5873 5873 5873 5872 5872 5872 5872 5872 5872 5871 5871 5870 5869 5868 5868
5793 5796 5799 5804 5809 5813 5817 5822 5826 5830 5835 5837 5840 5843 5845 5848 5851 5853 5855 5857 5859 5861 5862 5863 5864 5865 5866 5867 5868 5869 5869 5869 5869 5869 5869 5868 5868 5868 5868 5867 5866 5865 5865 5864
5787 5790 5794 5801 5803 5807 5811 5816 5820 5824 5827 5830 5834 5836 5839 5842 5845 5847 5850 5852 5854 5856 5858 5859 5860 5860 5862 5863 5864 5864 5865 5865 5865 5865 5865 5865 5864 5864 5864 5863 5862 5861 5860 5860
5781 5784 5788 5792 5797 5801 5805 5809 5813 5817 5821 5824 5827 5830 5834 5836 5839 5842 5844 5847 5849 5851 5853 5854 5855 5857 5858 5859 5860 5860 5860 5861 5861 5861 5861 5861 5860 5860 5859 5858 5857 5856 5856 5855
5774 5778 5782 5787 5791 5794 5799 5802 5807 5810 5814 5818 5821 5825 5829 5830 5833 5835 5839 5841 5844 5846 5848 5850 5851 5852 5853 5855 5856 5856 5856 5857 5857 5857 5857 5856 5856 5855 5854 5854 5853 5852 5851 5850
5767 5771 5775 5779 5784 5788 5794 5797 5801 5804 5808 5811 5815 5819 5822 5824 5827 5830 5832 5835 5838 5840 5842 5844 5846 5848 5849 5850 5851 5852 5852 5853 5853 5853 5853 5852 5852 5851 5850 5849 5848 5847 5847 5846
5759 5764 5770 5772 5777 5782 5786 5789 5793 5797 5800 5804 5808 5812 5815 5818 5821 5824 5826 5829 5832 5834 5837 5839 5841 5842 5844 5845 5846 5847 5847 5848 5848 5848 5848 5847 5847 5846 5845 5844 5844 5843 5842 5841
5753 5758 5761 5765 5769 5774 5778 5782 5786 5790 5794 5798 5801 5805 5808 5812 5815 5818 5821 5823 5826 5828 5831 5833 5835 5837 5838 5840 5841 5841 5842 5843 5843 5843 5843 5843 5842 5842 5841 5839 5839 5838 5837 5837
5745 5749 5753 5758 5761 5766 5770 5774 5779 5783 5787 5791 5794 5798 5802 5806 5809 5812 5815 5818 5820 5823 5825 5827 5829 5831 5833 5834 5835 5836 5837 5837 5837 5838 5838 5838 5837 5837 5836 5835 5834 5833 5832 5832
5737 5742 5746 5750 5754 5758 5763 5767 5771 5776 5779 5783 5788 5792 5796 5799 5803 5806 5809 5812 5815 5817 5819 5822 5824 5825 5827 5828 5830 5831 5831 5832 5832 5832 5833 5833 5832 5832 5831 5830 5829 5828 5827 5826
5731 5735 5739 5743 5747 5751 5755 5760 5764 5769 5773 5777 5781 5785 5789 5793 5797 5800 5804 5807 5809 5812 5814 5816 5818 5820 5821 5823 5824 5825 5826 5826 5827 5827 5827 5827 5826 5826 5825 5825 5824 5823 5821 5821
5725 5729 5732 5737 5741 5745 5749 5753 5757 5762 5766 5771 5775 5779 5783 5787 5791 5794 5798 5801 5803 5806 5808 5810 5812 5814 5815 5817 5818 5819 5819 5820 5820 5821 5821 5821 5821 5820 5820 5819 5818 5817 5815 5814
5719 5722 5726 5731 5735 5738 5742 5746 5750 5755 5760 5764 5769 5773 5777 5781 5785 5788 5792 5795 5797 5800 5802 5804 5806 5808 5809 5811 5812 5813 5813 5814 5814 5814 5815 5815 5814 5814 5813 5812 5811 5810 5809 5808
5713 5717 5721 5725 5729 5733 5736 5740 5744 5749 5753 5758 5762 5766 5771 5775 5778 5782 5786 5789 5791 5793 5796 5798 5799 5801 5803 5804 5805 5806 5807 5807 5808 5808 5808 5808 5807 5807 5806 5805 5804 5803 5802 5801
5708 5711 5716 5720 5723 5727 5731 5734 5739 5743 5747 5751 5756 5760 5764 5768 5772 5776 5779 5782 5785 5787 5790 5792 5793 5795 5796 5797 5799 5799 5800 5800 5801 5801 5801 5801 5801 5800 5799 5798 5797 5796 5795 5795
5702 5706 5710 5714 5717 5721 5725 5729 5733 5737 5741 5745 5749 5754 5758 5762 5766 5769 5773 5776 5779 5781 5783 5785 5787 5788 5789 5791 5792 5792 5793 5793 5794 5794 5794 5794 5794 5793 5792 5791 5790 5789 5789 5787
5697 5701 5704 5708 5712 5715 5719 5722 5726 5730 5734 5739 5743 5747 5751 5755 5759 5762 5766 5769 5772 5775 5777 5779 5781 5782 5783 5784 5785 5785 5786 5786 5786 5787 5787 5787 5786 5786 5785 5784 5783 5783 5781 5780
5691 5695 5699 5702 5706 5709 5713 5717 5721 5725 5729 5733 5737 5741 5745 5749 5753 5756 5760 5763 5766 5768 5770 5772 5774 5776 5777 5777 5778 5779 5779 5779 5779 5780 5780 5780 5779 5779 5778 5777 5776 5776 5774 5773
5686 5690 5693 5697 5701 5704 5708 5712 5715 5719 5723 5727 5731 5735 5739 5743 5747 5750 5754 5757 5759 5762 5764 5766 5768 5769 5770 5771 5772 5772 5772 5773 5773 5773 5773 5773 5772 5772 5771 5770 5769 5768 5767 5765
5681 5685 5689 5692 5696 5699 5703 5706 5710 5714 5718 5722 5726 5730 5734 5737 5741 5745 5748 5750 5753 5756 5758 5760 5762 5763 5764 5765 5766 5766 5767 5767 5767 5766 5766 5766 5765 5764 5764 5763 5762 5761 5760 5758
5677 5680 5684 5688 5691 5694 5698 5702 5706 5710 5713 5717 5721 5725 5728 5732 5736 5739 5742 5745 5748 5750 5753 5755 5756 5757 5758 5759 5760 5760 5761 5761 5761 5760 5760 5759 5759 5758 5757 5756 5755 5754 5752 5750
5673 5676 5680 5683 5687 5690 5693 5697 5701 5705 5709 5712 5716 5720 5723 5727 5730 5734 5737 5740 5743 5746 5748 5749 5751 5752 5753 5753 5754 5754 5755 5755 5755 5754 5754 5753 5752 5752 5751 5749 5748 5747 5745 5743
5670 5673 5677 5680 5683 5686 5690 5693 5697 5701 5704 5708 5712 5716 5719 5723 5726 5730 5733 5736 5739 5741 5743 5744 5746 5747 5748 5748 5748 5748 5749 5749 5749 5748 5748 5747 5746 5745 5744 5743 5741 5739 5738 5735
5667 5670 5674 5677 5680 5683 5686 5690 5693 5697 5700 5704 5708 5712 5715 5719 5722 5726 5729 5731 5734 5736 5738 5739 5741 5742 5742 5743 5742 5742 5743 5743 5743 5742 5742 5741 5740 5739 5737 5736 5734 5732 5730 5728
5664 5668 5671 5674 5677 5681 5684 5687 5691 5694 5697 5701 5704 5708 5711 5715 5718 5721 5724 5727 5730 5731 5733 5734 5735 5736 5737 5737 5737 5737 5737 5736 5736 5736 5735 5734 5733 5732 5730 5729 5727 5725 5723 5721
5663 5666 5669 5673 5675 5678 5681 5685 5688 5691 5695 5698 5702 5705 5708 5712 5715 5718 5720 5723 5725 5726 5728 5729 5730 5730 5731 5731 5731 5731 5731 5731 5730 5729 5728 5727 5726 5725 5723 5721 5720 5717 5715 5713